HST 1 20580U 90037B 26247.13916270 .00003685 00000+0 11016-3 0 9997 2 20580 28.4724 260.6336 0001483 300.8652 59.1798 15.31547902800688 POLAR 1 23802U 96013A 26246.60188565 .00000224 00000+0 00000+0 0 9999 2 23802 79.9671 226.1103 6550634 206.3905 95.2899 1.29845782145878 SWAS 1 25560U 98071A 26246.78913441 .00002234 00000+0 14349-3 0 9994 2 25560 69.8967 24.7518 0004174 164.0908 196.0388 15.10028183509138 CXO 1 25867U 99040B 26248.71042646 .00000937 00000+0 00000+0 0 9999 2 25867 57.3108 114.4960 7716344 309.5451 0.1502 0.37805198 17634 XMM-NEWTON 1 25989U 99066A 26249.13213993 .00000135 00000+0 00000+0 0 9994 2 25989 64.0609 281.9381 4652091 63.4934 0.1485 0.50124412 23415 TERRA 1 25994U 99068A 26247.25279236 .00000153 00000+0 40161-4 0 9992 2 25994 97.9386 293.6376 0002165 17.6296 57.3238 14.61154384421152 TIMED 1 26998U 01055B 26246.55076084 .00000599 00000+0 57772-4 0 9994 2 26998 74.0658 77.2162 0002147 246.0893 114.0067 14.95435798342538 CORIOLIS 1 27640U 03001A 26246.48324117 .00000057 00000+0 47272-4 0 9990 2 27640 98.7165 252.1847 0013837 352.4443 7.6523 14.19963672225339 SORCE 1 27651U 03004A 26247.22876600 .00001422 00000+0 11146-3 0 9994 2 27651 39.9901 170.5835 0018848 260.0605 99.8062 15.04065112283801 MOST 1 27843U 03031D 26247.26644776 .00000020 00000+0 28984-4 0 9990 2 27843 98.7080 253.8995 0010390 30.1678 330.0096 14.21336020201946 SCISAT 1 1 27858U 03036A 26246.76041229 .00000336 00000+0 47542-4 0 9990 2 27858 73.9315 15.2135 0006261 54.4332 305.7427 14.81527627243081 SWIFT 1 28485U 04047A 26247.28931578 .00103672 00000+0 56461-3 0 9999 2 28485 20.5519 290.8806 0001031 61.9167 298.1385 15.78176570199337 HINODE (SOLAR-B) 1 29479U 06041A 26247.01151869 .00000355 00000+0 69311-4 0 9990 2 29479 98.0555 262.0070 0018354 41.6322 318.6276 14.68711146 66443 SHIJIAN-6 02A (SJ-6 02A) 1 29505U 06046A 26247.29299889 .00003403 00000+0 17220-3 0 9998 2 29505 97.6301 288.9712 0002158 190.3543 169.7646 15.17715246 84265 SHIJIAN-6 02B (SJ-6 02B) 1 29506U 06046B 26247.31956277 -.00000058 00000+0 26259-6 0 9992 2 29506 97.7021 275.8517 0015966 157.1160 203.0779 15.01473841 82612 FGRST (GLAST) 1 33053U 08029A 26246.72788128 .00002448 00000+0 83894-4 0 9999 2 33053 25.5833 18.9831 0008111 170.3923 189.6771 15.24300081 7682 SDO 1 36395U 10005A 26247.07665138 -.00000082 00000+0 00000+0 0 9998 2 36395 34.8124 85.1417 0001862 73.2675 110.7202 1.00274807 60854 CRYOSAT 2 1 36508U 10013A 26247.27076352 .00000092 00000+0 22203-4 0 9993 2 36508 92.0296 296.5123 0002540 85.1925 274.9573 14.51903017869552 X-SAT 1 37389U 11015C 26247.27631470 .00000028 00000+0 29532-4 0 9993 2 37389 98.3610 220.5655 0015115 108.5007 251.7817 14.25225587798947 GCOM-W1 (SHIZUKU) 1 38337U 12025A 26247.29642414 .00000226 00000+0 60287-4 0 9993 2 38337 98.2054 186.6623 0001437 89.0928 72.1891 14.57126708760559 NUSTAR 1 38358U 12031A 26247.33335648 .00016486 00000+0 94411-3 0 9996 2 38358 6.0261 160.1429 0008815 215.0921 122.4621 15.09456089 1308 NEOSSAT 1 39089U 13009D 26246.46680178 .00000092 00000+0 46377-4 0 9993 2 39089 98.4224 64.6612 0011360 19.3575 340.8040 14.35849792707977 BRITE-AUSTRIA 1 39091U 13009F 26246.98359447 .00000078 00000+0 40937-4 0 9995 2 39091 98.4042 64.4939 0010367 11.9014 348.2415 14.36568314708361 IRIS 1 39197U 13033A 26246.54635605 .00000556 00000+0 69668-4 0 9997 2 39197 97.9291 85.5749 0025701 63.9288 296.4568 14.86019496712016 HISAKI (SPRINT-A) 1 39253U 13049A 26247.07969900 .00000102 00000+0 49731-4 0 9990 2 39253 29.7193 178.9125 0136635 296.3447 62.3151 13.55549876642134 CASSIOPE 1 39265U 13055A 26247.20880133 .00041503 -45644-6 42035-3 0 9995 2 39265 80.9147 330.3548 0272513 154.8050 206.6778 15.30650353679734 STSAT-3 1 39422U 13066G 26247.27348455 .00002421 00000+0 18366-3 0 9990 2 39422 97.6276 215.9290 0010382 121.6478 238.5761 15.03121738696082 SWARM B 1 39451U 13067A 26247.27165962 .00001948 00000+0 67946-4 0 9995 2 39451 87.7456 318.3057 0003333 94.7650 265.3980 15.28989641695322 SWARM A 1 39452U 13067B 26247.20757249 .00007419 00000+0 12909-3 0 9991 2 39452 87.3337 26.8758 0002262 92.8445 267.3075 15.50574251718490 SWARM C 1 39453U 13067C 26247.20747008 .00007414 00000+0 12898-3 0 9996 2 39453 87.3340 25.4583 0002268 93.8052 266.3469 15.50576529718459 BRITE-CA1 (TORONTO) 1 40020U 14033L 26246.57847036 .00000385 00000+0 65450-4 0 9996 2 40020 97.9838 14.1068 0079004 26.9015 333.6256 14.72801813653754 OCO 2 1 40059U 14035A 26247.26204977 .00000189 00000+0 52128-4 0 9998 2 40059 98.2052 187.3633 0001687 84.8632 275.2759 14.57083222647569 BRITE-PL2 (HEWELIUSZ) 1 40119U 14049B 26246.29554313 .00000761 00000+0 75315-4 0 9993 2 40119 97.9153 358.9348 0013251 205.4008 154.6562 14.94825312653116 MMS 1 1 40482U 15011A 26247.33335648 -.00002007 00000+0 00000+0 0 9990 2 40482 72.9139 347.8362 8259929 169.1896 91.9825 0.28352750 1386 MMS 2 1 40483U 15011B 26247.33335648 -.00002008 00000+0 00000+0 0 9992 2 40483 72.9163 347.8359 8262655 169.1906 91.9661 0.28352914 1382 MMS 3 1 40484U 15011C 26247.33335648 -.00002007 00000+0 00000+0 0 9992 2 40484 72.9178 347.8471 8261137 169.1996 91.9362 0.28352725 1385 MMS 4 1 40485U 15011D 26247.33335648 -.00002007 00000+0 00000+0 0 9993 2 40485 72.9096 347.8319 8261082 169.2089 91.9359 0.28352863 1388 ASTROSAT 1 40930U 15052A 26247.00000956 .00001264 00000+0 71957-4 0 9995 2 40930 5.9977 308.0234 0007454 80.0062 280.0907 14.82627108591540 DAMPE 1 41173U 15078A 26247.25905999 .00000939 00000+0 33936-4 0 9994 2 41173 97.4598 253.1384 0012603 147.7060 212.4955 15.30957015596647 PISAT 1 41784U 16059B 26246.40522260 .00000532 00000+0 98044-4 0 9994 2 41784 97.8238 243.5225 0027958 318.0214 41.8849 14.69108649531221 HXMT (HUIYAN) 1 42758U 17034A 26247.31658170 .00002355 00000+0 12032-3 0 9998 2 42758 43.0139 102.2272 0032666 286.8313 72.8954 15.19052297509693 FLYING LAPTOP 1 42831U 17042G 26247.29650448 .00001381 00000+0 11087-3 0 9993 2 42831 97.4992 39.9760 0015794 214.5909 145.4290 15.01548468498323 ZHANGHENG 1-01 (CSES-1) 1 43194U 18015C 26247.28876045 .00003773 00000+0 17550-3 0 9997 2 43194 97.6953 54.5600 0014471 7.5058 352.6391 15.20513738476667 SALSAT 1 46495U 20068K 26246.48051839 .00004593 00000+0 15704-3 0 9992 2 46495 97.8890 254.3854 0010379 37.1076 323.0879 15.30786953327333 IXPE 1 49954U 21121A 26247.33335648 .00008282 00000+0 42842-3 0 9996 2 49954 0.2309 78.4026 0006899 201.3757 73.1276 15.10893267 5598 SMILE 1 69123U 26109A 26245.46399212 .00000790 00000+0 00000+0 0 9998 2 69123 70.0101 206.3767 8202709 285.9750 0.0946 0.47513096 292